Weather in Tamitsa

Russia / Arkhangel'skaya Oblast'     64°09′36″N   38°02′05″E
temp.,
°C
wind,
m/s
gust,
m/s
humid.,
%
clouds,
%
prec.,
mm/h
press.,
hPa
HPBL,
m
14 april, wed
wed1400:00+5ssw3897100 0.0 1016190
03:00+3w2599100 0.3 1016133
06:00+3wnw2599100 0.4 1014155
09:00+2w2499100 2.7 1015227
12:00+2sw2598100 1.4 1014265
15:00+3w379041 1.5 1015512
18:00+3wnw4106916 0.0 1016787
21:000wnw411825 0.0 1019312
15 april, thu
thu1500:00−1wnw311895 0.0 1021289
03:00−2wnw38895 0.0 1024239
06:00−2w37875 0.0 1026301
09:00+1wnw36672 0.0 1028523
12:00+2w45602 0.0 1030793
15:00+2wsw35632 0.0 1031350
18:00+2ssw23643 0.0 1031129
21:00−1s36726 0.0 103186
16 april, fri
fri1600:000wsw397913 0.0 1031158
03:00−1sw278913 0.0 1031123
06:00−1wsw26915 0.0 1032145
09:00+1w358215 0.0 1033226
12:00+3wsw347631 0.0 1034298
15:00+3wsw237518 0.0 1034233
18:00+4nnw14664 0.0 1034308
21:00+2ene117510 0.0 103510
17 april, sat
sat1700:00+1ssw228016 0.0 103612
03:000sw22845 0.0 103613
06:000sw24885 0.0 103693
09:00+2w378137 0.0 1035214
12:00+4w367454 0.0 1035244
15:00+5w366729 0.0 1035237
18:00+5w25685 0.0 1034112
21:00+2wnw22735 0.0 103410
18 april, sun
sun1800:00+2wnw11762 0.0 103410
03:00+1ssw11795 0.0 103410
06:00+1s11793 0.0 103410
09:00+5ssw11681 0.0 1035183
12:00+6wsw21633 0.0 1035548
15:00+6w21638 0.0 1035594
18:00+5wsw126930 0.0 1035152
21:00+2ene117930 0.0 103510